Regional Weather Roundup
Issued by NWS

Home | Current Version | Previous Version | Graphics & Text | Print | Product List | Glossary On
Versions: 1 2 3 4 5 6 7 8 9 10 11 12 13 14 15 16 17 18 19 20 21 22 23 24 25 26 27 28 29 30 31 32 33 34 35 36 37 38 39 40 41 42 43 44 45 46 47 48 49 50
000
ASUS43 KTOP 170608
RWRKS

WEATHER ROUNDUP FOR KANSAS
NATIONAL WEATHER SERVICE GOODLAND KS
100 AM CDT WED SEP 17 2014

NOTE:  "FAIR" INDICATES FEW OR NO CLOUDS BELOW 12,000 FEET WITH NO
SIGNIFICANT WEATHER AND/OR OBSTRUCTIONS TO VISIBILITY.

KSZ001>006-013>018-027>032-041>047-170700-
NORTHWEST KANSAS

CITY           SKY/WX    TMP DP  RH WIND       PRES   REMARKS
GOODLAND       CLEAR     57  50  77 W5        30.01F
6HR MIN TEMP:  56; 6HR MAX TEMP:  84;

HAYS           CLEAR     64  59  82 S8        29.94F
HILL CITY      CLEAR     60  58  92 E5        29.95S
6HR MIN TEMP:  60; 6HR MAX TEMP:  80;

RUSSELL        CLEAR     65  62  90 S14       29.93F
6HR MIN TEMP:  65; 6HR MAX TEMP:  75;

$$

KSZ061>065-074>080-084>089-170700-
SOUTHWEST KANSAS

CITY           SKY/WX    TMP DP  RH WIND       PRES   REMARKS
DODGE CITY     CLEAR     70  60  70 S12       29.99F
6HR MIN TEMP:  70; 6HR MAX TEMP:  82;

ELKHART          N/A     66  59  78 SW9         N/A
GARDEN CITY    CLEAR     65  60  84 S7        29.98F
6HR MIN TEMP:  64; 6HR MAX TEMP:  82;

GREAT BEND     CLEAR     66  63  88 S10       29.96F
LIBERAL        CLEAR     66  59  77 SW9       30.02F
PRATT          CLEAR     66  63  88 S9        29.99S
$$

KSZ066>073-081>083-090>101-170700-
SOUTHEAST KANSAS

CITY           SKY/WX    TMP DP  RH WIND       PRES   REMARKS
CHANUTE        PTCLDY    64  63  96 CALM      30.01F
6HR MIN TEMP:  63; 6HR MAX TEMP:  74;

COFFEYVILLE    CLEAR     66  64  93 SE3       30.00F
6HR MIN TEMP:  65; 6HR MAX TEMP:  74;

HUTCHINSON     CLEAR     67  63  87 S9        29.98S
6HR MIN TEMP:  67; 6HR MAX TEMP:  78;

MEDICINE LODGE   N/A     68  66  93 SE8       29.97F
NEWTON         PTCLDY    64  59  82 S10       30.00F
PARSONS        CLEAR     66  65  96 CALM      30.02F
6HR MIN TEMP:  63; 6HR MAX TEMP:  74;

WICHITA INTL   PTCLDY    67  64  90 S12       29.97F
6HR MIN TEMP:  67; 6HR MAX TEMP:  78;

WICHITA JABRA  CLEAR     66  64  93 S10       29.98F
6HR MIN TEMP:  66; 6HR MAX TEMP:  76;

WICHITA MCCONL CLEAR     66  66 100 SE9       29.98F
WINFIELD       CLEAR     67  64  90 SE8       30.00F
6HR MIN TEMP:  66; 6HR MAX TEMP:  74;

$$

KSZ007>012-019>026-033>040-048>060-102>105-170700-
NORTHEAST KANSAS

CITY           SKY/WX    TMP DP  RH WIND       PRES   REMARKS
CONCORDIA      PTCLDY    58  56  93 SE6       29.96F
6HR MIN TEMP:  57; 6HR MAX TEMP:  66;

EMPORIA        CLOUDY    64  63  96 SE7       30.00S
6HR MIN TEMP:  63; 6HR MAX TEMP:  73;

LAWRENCE       CLOUDY    63  58  83 SE7       30.00F
6HR MIN TEMP:  60; 6HR MAX TEMP:  68;

MANHATTAN      CLEAR     65  59  81 CALM      29.97F
6HR MIN TEMP:  63; 6HR MAX TEMP:  74;

MARYSVILLE     MOCLDY    63  55  77 SE7       29.97F
OLATHE IND     CLOUDY    63  59  87 S7        30.02F
6HR MIN TEMP:  62; 6HR MAX TEMP:  68;

OLATHE EXE     CLOUDY    62  58  86 S8        30.02F
6HR MIN TEMP:  61; 6HR MAX TEMP:  67;

SALINA         CLEAR     66  62  87 SE7       29.96F
6HR MIN TEMP:  66; 6HR MAX TEMP:  75;

TOPEKA BILLARD PTCLDY    66  60  81 SE10      29.98F
6HR MIN TEMP:  64; 6HR MAX TEMP:  71;

TOPEKA FORBES  MOCLDY    64  59  83 SE9       29.99F
6HR MIN TEMP:  62; 6HR MAX TEMP:  70;

$$


USA.gov is the U.S. government's official web portal to all federal, state and local government web resources and services.